Weather Roundup
Issued by NWS Chicago, IL

Home | Current Version | Previous Version | Text Only | Print | Product List | Glossary Off
Versions: 1 2 3 4 5 6 7 8 9 10 11 12 13 14 15 16 17 18 19 20 21 22 23 24 25 26 27 28 29 30 31 32 33 34 35 36 37 38 39 40 41 42 43 44 45 46 47 48 49 50

000
NZUS59 KLOT 051903
HRRLOT

CHICAGO AREA WEATHER ROUNDUP
NATIONAL WEATHER SERVICE CHICAGO/ROMEOVILLE IL
100 PM CST MON DEC 05 2016

NOTE: "FAIR" INDICATES FEW OR NO CLOUDS BELOW 12,000 FEET WITH NO
SIGNIFICANT WEATHER AND/OR OBSTRUCTIONS TO VISIBILITY.

* THESE STATIONS ARE NOT UNDER NWS QUALITY CONTROL. THEY ALSO MAY NOT
  REPORT WEATHER SUCH AS PRECIPITATION OR FOG.

ILZ005-006-012>014-019>023-052000-
NORTHEAST ILLINOIS

CITY           SKY/WX    TMP DP  RH WIND       PRES   REMARKS
OHARE          NOT AVBL
MIDWAY         CLOUDY    33  30  88 S9        30.02F WCI  25
AURORA         CLOUDY    32  30  92 S12       30.00F FOG     WCI  23
LANSING*       CLOUDY    32  32 100 S12       30.03F WCI  23
WAUKEGAN       CLOUDY    33  31  92 S13       29.99S FOG     WCI  24
DUPAGE AIRPORT CLOUDY    32  29  88 S14       30.00F FOG     WCI  22
WHEELING       CLOUDY    33  31  92 S14       30.02F FOG     WCI  23
NORTHERLY ISL    N/A     33  31  92 S13         N/A  WCI  24
$$

WIZ051-052-058>065-066-070>072-052000-
SOUTHEAST WISCONSIN

CITY           SKY/WX    TMP DP  RH WIND       PRES   REMARKS
MILWAUKEE      CLOUDY    34  31  88 S10       29.98S FOG     WCI  26
KENOSHA*       CLOUDY    33  30  88 S15       29.99S FOG     WCI  23
RACINE*        CLOUDY    33  31  92 S7        30.00S FOG     WCI  27
WAUKESHA       CLOUDY    30  30 100 S7        29.98R FOG     WCI  23
$$

INZ001>003-010>013-019-020-052000-
NORTHWEST INDIANA

CITY           SKY/WX    TMP DP  RH WIND       PRES   REMARKS
GARY*          NOT AVBL
MICHIGAN CITY* NOT AVBL
RENSSELAER*    NOT AVBL
VALPARAISO     CLOUDY    33  30  88 S9        30.04F WCI  25
$$

LMZ740>746-052000-
SOUTHERN LAKE MICHIGAN

STATION/POSITION TIME  SKY/WX   TEMP WIND        PRES    VSBY
                                AIR  DIR/SP/G
                 (UTC)          (F)  (DEG/KT/KT) (MB)    (MI)
HARRISON CRIB    1840            34  190/ 19/ 23   N/A
BURNHAM HARBOR   1900            33  180/ 11/ 16   N/A
CALUMET HARBOR   1830            33  180/  7/ 15 1016.5F
BURNS HARBOR     1840            33  180/ 13/ 17 1017.6F
MICHIGAN CITY    NOT AVBL
$$

ABBREVIATIONS USED IN REMARKS
   TC - TEMPERATURE IN CELSIUS
  WCI - WIND CHILL INDEX
   HX - HEAT INDEX
  VSB - VISIBILITY
$$




USA.gov is the U.S. government's official web portal to all federal, state and local government web resources and services.